Overview Statistics Trail Chart Weather Telemetry Raw packets
 

This is the latest recevied weather packets stored in our database for station/object KD7AWQ. If no packets are shown the sender has not sent any weather packets the latest 10 day(s).

<< 70 71 72 73 74 75 76 >>
Time Temp. Humidity Pressure Rain* Wind** Luminosity Snow
1787929505 29.44° C 34% 1190.8 hPa 0 mm - 270 W/m² -
1787929205 30° C 33% 1190.8 hPa 0 mm - 253 W/m² -
1787928897 30° C 33% 1190.8 hPa 0 mm - 247 W/m² -
1787928597 30° C 33% 1190.9 hPa 0 mm - 356 W/m² -
1787928295 30° C 32% 1190.6 hPa 0 mm - 372 W/m² -
1787927994 30° C 34% 1191 hPa 0 mm - 343 W/m² -
1787927689 29.44° C 34% 1191.2 hPa 0 mm - 325 W/m² -
1787927388 29.44° C 34% 1191 hPa 0 mm - 296 W/m² -
1787927084 29.44° C 33% 1190.7 hPa 0 mm - 267 W/m² -
1787926779 30° C 32% 1191 hPa 0 mm - 221 W/m² -
1787926478 29.44° C 31% 1191 hPa 0 mm - 219 W/m² -
1787926177 29.44° C 31% 1190.9 hPa 0 mm - 161 W/m² -
1787925877 28.89° C 32% 1190.8 hPa 0 mm - 144 W/m² -
1787925571 28.89° C 32% 1190.7 hPa 0 mm - 152 W/m² -
1787925266 28.33° C 34% 1190.8 hPa 0 mm - 121 W/m² -
1787924965 28.33° C 34% 1190.8 hPa 0 mm - 118 W/m² -
1787924660 27.78° C 34% 1190.6 hPa 0 mm - 97 W/m² -
1787924355 27.78° C 34% 1190.8 hPa 0 mm - 70 W/m² -
1787924050 27.78° C 34% 1190.5 hPa 0 mm - 61 W/m² -
1787923744 27.78° C 35% 1190.8 hPa 0 mm - 52 W/m² -
1787923440 27.22° C 36% 1190.6 hPa 0 mm - 44 W/m² -
1787923135 26.67° C 37% 1190.6 hPa 0 mm - 36 W/m² -
1787922830 26.67° C 38% 1190.5 hPa 0 mm - 31 W/m² -
1787922529 26.11° C 39% 1190.5 hPa 0 mm - 24 W/m² -
1787922229 26.67° C 39% 1190.4 hPa 0 mm - 16 W/m² -

* Rain latest hour (hover to see other rain measurements)
** Current wind speed in m/s (hover to see current wind gust speed)